Regional Weather Roundup
Issued by NWS

Home | Current Version | Previous Version | Graphics & Text | Print | Product List | Glossary On
Versions: 1 2 3 4 5 6 7 8 9 10 11 12 13 14 15 16 17 18 19 20 21 22 23 24 25 26 27 28 29 30 31 32 33 34 35 36 37 38 39 40 41 42 43 44 45 46 47 48 49 50
000
ASUS43 KLSX 271710
RWRMO

WEATHER SUMMARY FOR MISSOURI
NATIONAL WEATHER SERVICE SPRINGFIELD MO
1200 PM CDT SAT AUG 27 2016

NOTE: "FAIR" INDICATES FEW OR NO CLOUDS BELOW 12,000 FEET WITH NO
       SIGNIFICANT WEATHER AND/OR OBSTRUCTIONS TO VISIBILITY.
       CURRENT SKY AND/OR WEATHER CONDITIONS ARE NOT AVAILABLE FOR
       CHILLICOTHE AND FARMINGTON.

MOZ001>031-035>038-043-044-053-054-271800-
...NORTHERN AND WESTERN MISSOURI...

CITY           SKY/WX    TMP DP  RH WIND       PRES   REMARKS
KANSAS CTY INT MOSUNNY   81  70  69 S6        30.03F
KANSAS C DTWN  SUNNY     84  71  65 SW7       30.02S
LEE`S SUMMIT   MOSUNNY   81  72  74 S10       30.04F
ST JOSEPH      SUNNY     78  68  71 CALM      30.03F
KIRKSVILLE     PTSUNNY   80  72  76 S7        30.05S

$$
MOZ066>068-077>081-088>096-101>105-271800-
...SOUTHWEST MISSOURI...

CITY           SKY/WX    TMP DP  RH WIND       PRES   REMARKS
SPRINGFIELD    CLOUDY    84  69  60 S7        30.07F
JOPLIN         MOSUNNY   83  71  67 SW8       30.06F
BRANSON        PTSUNNY   82  72  69 E5        30.11F

$$
MOZ032>034-039>042-045>050-055>058-069>072-271800-
...CENTRAL MISSOURI...

CITY           SKY/WX    TMP DP  RH WIND       PRES   REMARKS
COLUMBIA       CLOUDY    83  71  67 SW7       30.06F
JEFFERSON CITY CLOUDY    84  70  62 SW7       30.04F
ROLLA          CLOUDY    83  73  72 VRB5      30.07F
SEDALIA        SUNNY     85  70  60 VRB7      30.05F
WHITEMAN AFB   PTSUNNY   84  73  70 SW6       30.03S HX  91
OSAGE BEACH    MOSUNNY   83  71  67 W6        30.07F

$$
MOZ051-052-059>065-271800-
...EAST CENTRAL MISSOURI...

CITY           SKY/WX    TMP DP  RH WIND       PRES   REMARKS
ST LOUIS INTL  PTSUNNY   88  70  55 VRB3      30.07S HX  93
SPIRIT OF STL  PTSUNNY   85  73  67 CALM      30.05F HX  91
ST CHARLES     PTSUNNY   85  72  65 SW6       30.05S HX  91

$$
MOZ072>076-082>087-097>100-106>115-271800-
...SOUTH CENTRAL AND SOUTHEAST MISSOURI...

CITY           SKY/WX    TMP DP  RH WIND       PRES   REMARKS
CAPE GIRARDEAU MOSUNNY   83  71  67 S6        30.08F
FARMINGTON     CLOUDY    84  73  69 NW5       30.10S HX  90
POPLAR BLUFF   SUNNY     84  74  71 VRB3      30.08F HX  91
WEST PLAINS    PTSUNNY   84  72  67 CALM      30.12S

$$




USA.gov is the U.S. government's official web portal to all federal, state and local government web resources and services.